When you browse on this site, cookies collect data to enhance your experience and personalize the content and advertising you see.
Visit our Privacy Policy to learn more. By continuing to use the site, you agree to this use of cookies and data.
  • In Spain
  • List of Countries
  • For 7 days
  • Water Temperature
  • Weather Map
  • Weather Widgets
  • user-avatar
    Login

    Hourly Weather Karlovy Vary

    Today, 5 June, Friday

    Time Temperature Precipitation Wind Pressure Humidity
    00:00 +9°C° 0.1 mm 2 mps 684 mmHg 97%
    01:00 +9°C° 0 mm 2 mps 684 mmHg 98%
    02:00 +9°C° 0.1 mm 2 mps 684 mmHg 98%
    03:00 +8°C° 0.1 mm 2 mps 684 mmHg 98%
    04:00 +8°C° 0.1 mm 2 mps 684 mmHg 98%
    05:00 +8°C° 0.3 mm 3 mps 685 mmHg 96%
    06:00 +8°C° 0.3 mm 3 mps 685 mmHg 94%
    07:00 +7°C° 0.3 mm 4 mps 685 mmHg 92%
    08:00 +8°C° 0 mm 4 mps 686 mmHg 81%
    09:00 +10°C° 0 mm 4 mps 686 mmHg 70%
    10:00 +12°C° 0 mm 5 mps 686 mmHg 59%
    11:00 +12°C° 0.1 mm 5 mps 686 mmHg 57%
    12:00 +13°C° 0.1 mm 5 mps 686 mmHg 55%
    13:00 +13°C° 0.1 mm 5 mps 686 mmHg 53%
    14:00 +12°C° 0.1 mm 5 mps 686 mmHg 59%
    15:00 +10°C° 0.1 mm 5 mps 685 mmHg 65%
    16:00 +9°C° 0.1 mm 5 mps 685 mmHg 71%
    17:00 +9°C° 0.6 mm 5 mps 685 mmHg 79%
    18:00 +8°C° 0.6 mm 5 mps 685 mmHg 86%
    19:00 +7°C° 0.6 mm 5 mps 685 mmHg 93%
    20:00 +7°C° 0.5 mm 5 mps 686 mmHg 94%
    21:00 +7°C° 0.5 mm 6 mps 686 mmHg 94%
    22:00 +7°C° 0.5 mm 6 mps 686 mmHg 94%
    23:00 +6°C° 0.2 mm 5 mps 687 mmHg 94%

    Tomorrow, 6 June, Saturday

    Time Temperature Precipitation Wind Pressure Humidity
    00:00 +6°C° 0.2 mm 5 mps 687 mmHg 95%
    01:00 +5°C° 0.2 mm 4 mps 688 mmHg 95%
    02:00 +5°C° 0 mm 4 mps 688 mmHg 95%
    03:00 +4°C° 0 mm 3 mps 688 mmHg 96%
    04:00 +4°C° 0 mm 3 mps 688 mmHg 96%
    05:00 +4°C° 0.1 mm 3 mps 689 mmHg 94%
    06:00 +5°C° 0.1 mm 3 mps 689 mmHg 93%
    07:00 +7°C° 0.1 mm 3 mps 689 mmHg 91%
    08:00 +7°C° 0.5 mm 3 mps 689 mmHg 93%
    09:00 +7°C° 0.5 mm 2 mps 689 mmHg 95%
    10:00 +7°C° 0.5 mm 2 mps 690 mmHg 96%
    11:00 +8°C° 0.3 mm 2 mps 690 mmHg 94%
    12:00 +9°C° 0.3 mm 3 mps 690 mmHg 91%
    13:00 +10°C° 0.3 mm 4 mps 690 mmHg 88%
    14:00 +10°C° 0.1 mm 4 mps 690 mmHg 85%
    15:00 +11°C° 0.1 mm 4 mps 690 mmHg 83%
    16:00 +11°C° 0.1 mm 3 mps 690 mmHg 80%
    17:00 +11°C° 0 mm 3 mps 690 mmHg 80%
    18:00 +11°C° 0 mm 3 mps 690 mmHg 80%
    19:00 +12°C° 0 mm 2 mps 690 mmHg 79%
    20:00 +10°C° 0 mm 2 mps 690 mmHg 85%
    21:00 +8°C° 0 mm 2 mps 691 mmHg 90%
    22:00 +7°C° 0 mm 2 mps 691 mmHg 96%
    23:00 +8°C° 0.1 mm 1 mps 691 mmHg 95%

    Day after tomorrow, 7 June, Sunday

    Time Temperature Precipitation Wind Pressure Humidity
    00:00 +9°C° 0.1 mm 1 mps 691 mmHg 94%
    01:00 +9°C° 0.1 mm 1 mps 691 mmHg 93%
    02:00 +9°C° 0.1 mm 1 mps 691 mmHg 94%
    03:00 +9°C° 0.1 mm 1 mps 691 mmHg 95%
    04:00 +9°C° 0.1 mm 1 mps 691 mmHg 96%
    05:00 +9°C° 0.3 mm 1 mps 692 mmHg 95%
    06:00 +9°C° 0.3 mm 1 mps 692 mmHg 94%
    07:00 +9°C° 0.3 mm 1 mps 692 mmHg 92%
    08:00 +9°C° 0.2 mm 2 mps 693 mmHg 87%
    09:00 +9°C° 0.2 mm 2 mps 693 mmHg 83%
    10:00 +10°C° 0.2 mm 3 mps 694 mmHg 78%
    11:00 +11°C° 0.1 mm 3 mps 694 mmHg 72%
    12:00 +12°C° 0.1 mm 3 mps 694 mmHg 65%
    13:00 +13°C° 0.1 mm 3 mps 695 mmHg 59%
    14:00 +13°C° 0.1 mm 3 mps 695 mmHg 60%
    15:00 +13°C° 0.1 mm 3 mps 695 mmHg 61%
    16:00 +14°C° 0.1 mm 2 mps 695 mmHg 62%
    17:00 +14°C° 0 mm 2 mps 695 mmHg 66%
    18:00 +13°C° 0 mm 1 mps 695 mmHg 71%
    19:00 +13°C° 0 mm 1 mps 695 mmHg 75%
    20:00 +11°C° 0 mm 1 mps 695 mmHg 80%
    21:00 +9°C° 0 mm 0 mps 695 mmHg 84%
    22:00 +8°C° 0 mm 0 mps 695 mmHg 89%
    23:00 +7°C° 0 mm 0 mps 695 mmHg 90%

    8 June, Monday

    Time Temperature Precipitation Wind Pressure Humidity
    00:00 +7°C° 0 mm 0 mps 695 mmHg 90%
    01:00 +7°C° 0 mm 0 mps 695 mmHg 90%
    02:00 +7°C° 0 mm 0 mps 695 mmHg 91%
    03:00 +8°C° 0 mm 1 mps 695 mmHg 91%
    04:00 +8°C° 0 mm 1 mps 695 mmHg 92%
    05:00 +9°C° 0 mm 1 mps 695 mmHg 88%
    06:00 +10°C° 0 mm 1 mps 695 mmHg 83%
    07:00 +11°C° 0 mm 1 mps 696 mmHg 79%
    08:00 +12°C° 0.1 mm 1 mps 696 mmHg 76%
    09:00 +13°C° 0.1 mm 2 mps 696 mmHg 74%
    10:00 +13°C° 0.1 mm 2 mps 696 mmHg 71%
    11:00 +12°C° 0.1 mm 3 mps 696 mmHg 74%
    12:00 +11°C° 0.1 mm 3 mps 696 mmHg 78%
    13:00 +11°C° 0.1 mm 3 mps 696 mmHg 81%
    14:00 +10°C° 0.1 mm 2 mps 696 mmHg 83%
    15:00 +10°C° 0.1 mm 2 mps 695 mmHg 85%
    16:00 +10°C° 0.1 mm 2 mps 695 mmHg 87%
    17:00 +9°C° 0 mm 2 mps 695 mmHg 89%
    18:00 +10°C° 0 mm 1 mps 696 mmHg 90%
    19:00 +10°C° 0 mm 1 mps 696 mmHg 92%
    20:00 +10°C° 0 mm 1 mps 696 mmHg 93%
    21:00 +9°C° 0 mm 1 mps 696 mmHg 94%
    22:00 +9°C° 0 mm 1 mps 696 mmHg 95%
    23:00 +9°C° 0.1 mm 1 mps 696 mmHg 96%

    9 June, Tuesday

    Time Temperature Precipitation Wind Pressure Humidity
    00:00 +9°C° 0.1 mm 1 mps 696 mmHg 96%
    01:00 +9°C° 0.1 mm 1 mps 696 mmHg 96%
    02:00 +9°C° 0.1 mm 1 mps 696 mmHg 97%
    03:00 +9°C° 0.1 mm 1 mps 696 mmHg 97%
    04:00 +9°C° 0.1 mm 1 mps 696 mmHg 97%
    05:00 +10°C° 0.2 mm 1 mps 696 mmHg 97%
    06:00 +10°C° 0.2 mm 1 mps 697 mmHg 96%
    07:00 +10°C° 0.2 mm 1 mps 697 mmHg 96%
    08:00 +11°C° 0.2 mm 1 mps 697 mmHg 94%
    09:00 +10°C° 0.2 mm 2 mps 698 mmHg 93%
    10:00 +10°C° 0.2 mm 2 mps 698 mmHg 91%
    11:00 +12°C° 0.1 mm 2 mps 698 mmHg 88%
    12:00 +12°C° 0.1 mm 3 mps 698 mmHg 85%
    13:00 +12°C° 0.1 mm 3 mps 699 mmHg 82%
    14:00 +13°C° 0.1 mm 4 mps 698 mmHg 79%
    15:00 +13°C° 0.1 mm 4 mps 698 mmHg 76%
    16:00 +14°C° 0.1 mm 4 mps 698 mmHg 73%
    17:00 +13°C° 0 mm 4 mps 698 mmHg 76%
    18:00 +12°C° 0 mm 4 mps 698 mmHg 78%
    19:00 +11°C° 0 mm 3 mps 698 mmHg 81%
    20:00 +10°C° 0 mm 3 mps 698 mmHg 86%
    21:00 +8°C° 0 mm 2 mps 698 mmHg 91%
    22:00 +7°C° 0 mm 2 mps 699 mmHg 96%
    23:00 +6°C° 0 mm 2 mps 698 mmHg 97%

    10 June, Wednesday

    Time Temperature Precipitation Wind Pressure Humidity
    00:00 +6°C° 0 mm 2 mps 698 mmHg 97%
    01:00 +6°C° 0 mm 2 mps 698 mmHg 97%
    02:00 +6°C° 0 mm 2 mps 698 mmHg 97%
    03:00 +6°C° 0 mm 2 mps 698 mmHg 98%
    04:00 +6°C° 0 mm 2 mps 698 mmHg 98%
    05:00 +7°C° 0 mm 2 mps 699 mmHg 94%
    06:00 +8°C° 0 mm 2 mps 699 mmHg 90%
    07:00 +10°C° 0 mm 2 mps 700 mmHg 86%
    08:00 +11°C° 0 mm 3 mps 700 mmHg 79%
    09:00 +13°C° 0 mm 3 mps 700 mmHg 73%
    10:00 +14°C° 0 mm 3 mps 701 mmHg 66%
    11:00 +16°C° 0 mm 3 mps 701 mmHg 64%
    12:00 +17°C° 0 mm 3 mps 701 mmHg 63%
    13:00 +18°C° 0 mm 3 mps 701 mmHg 61%
    14:00 +17°C° 0 mm 3 mps 700 mmHg 63%
    15:00 +17°C° 0 mm 4 mps 700 mmHg 66%
    16:00 +17°C° 0 mm 4 mps 700 mmHg 68%
    17:00 +15°C° 0 mm 4 mps 700 mmHg 73%
    18:00 +14°C° 0 mm 4 mps 700 mmHg 77%
    19:00 +13°C° 0 mm 3 mps 700 mmHg 82%
    20:00 +12°C° 0 mm 3 mps 700 mmHg 86%
    21:00 +12°C° 0 mm 2 mps 700 mmHg 91%
    22:00 +10°C° 0 mm 2 mps 700 mmHg 95%
    23:00 +10°C° 0 mm 2 mps 700 mmHg 95%
    Show more